"America/Chicago Time","Lifetime Energy (kWh)","Power (W)","AC Volts RMS (V) ","AC Amps RMS (mA)","Grid Frequency (Hz)","Inverter Temperature (C)"
"03/12/12 08:49:08","28.965","14.3","212.61","2","60.03","7"
"03/12/12 08:54:09","28.9653","2.3","212.37","213","60.07","8"
"03/12/12 08:59:08","28.9658","15.5","212.49","0","60.0","8"
"03/12/12 09:04:08","28.9666","6.4","213.1","161","60.0","8"
"03/12/12 09:09:09","28.9673","13.2","213.0","9","60.03","9"
"03/12/12 09:14:08","28.9681","11.8","213.52","23","60.03","9"
"03/12/12 09:19:08","28.9688","0.0","212.73","0","60.03","9"
"03/12/12 09:24:07","28.9693","13.2","212.64","13","60.03","9"
"03/12/12 09:29:08","28.9697","10.3","212.65","236","60.0","9"
"03/12/12 09:34:09","28.9705","19.4","212.84","191","60.0","9"
"03/12/12 09:39:09","28.9717","14.7","212.82","40","60.03","9"
"03/12/12 09:44:09","28.9727","16.8","212.87","145","60.0","9"
"03/12/12 09:49:09","28.9738","12.0","212.75","1","60.03","9"
"03/12/12 09:54:09","28.9751","18.4","212.84","155","60.0","10"
"03/12/12 09:59:07","28.9767","15.9","212.89","33","60.03","10"
"03/12/12 10:04:08","28.979","11.8","212.92","251","60.0","11"
"03/12/12 10:09:07","28.9802","15.9","212.59","137","60.0","11"
"03/12/12 10:14:08","28.9815","25.3","212.98","257","60.03","11"
"03/12/12 10:19:08","28.9829","12.4","212.29","7","60.03","11"
"03/12/12 10:24:09","28.9845","28.7","213.52","322","60.0","11"
"03/12/12 10:29:08","28.9868","25.4","214.23","65","60.03","11"
"03/12/12 10:34:08","28.9895","38.5","213.52","264","60.0","12"
"03/12/12 10:39:08","28.9921","18.6","213.55","93","60.03","12"
"03/12/12 10:44:09","28.9941","13.7","213.45","304","60.03","12"
"03/12/12 10:49:09","28.996","20.9","213.78","56","60.0","13"
"03/12/12 10:54:09","28.9981","15.0","213.39","230","60.03","13"
"03/12/12 10:59:09","28.9997","11.9","213.6","21","60.07","13"
"03/12/12 11:04:08","29.0008","21.3","213.24","249","60.03","13"
"03/12/12 11:09:08","29.0022","25.3","213.6","239","60.03","13"
"03/12/12 11:14:08","29.0035","16.5","214.12","9","60.03","13"
"03/12/12 11:19:08","29.0047","5.7","213.86","230","60.0","12"
"03/12/12 11:24:08","29.0057","17.8","212.59","40","60.0","12"
"03/12/12 11:29:09","29.0076","22.5","213.88","218","60.0","12"
"03/12/12 11:34:09","29.0093","19.6","212.77","72","60.0","12"
"03/12/12 11:39:09","29.0108","21.8","212.83","255","60.03","12"
"03/12/12 11:44:07","29.013","39.6","213.6","299","60.03","12"
"03/12/12 11:54:08","29.0171","21.7","213.13","271","60.03","12"
"03/12/12 11:59:09","29.0186","14.2","214.15","18","60.03","12"
"03/12/12 12:04:08","29.0205","19.2","213.34","330","60.0","12"
"03/12/12 12:09:08","29.0232","42.2","213.3","289","60.0","13"
"03/12/12 12:14:08","29.0263","42.7","214.1","152","60.0","13"
"03/12/12 12:19:09","29.03","50.1","214.44","322","60.0","14"
"03/12/12 12:24:08","29.0331","36.3","214.31","144","60.03","15"
"03/12/12 12:29:08","29.036","47.3","213.42","327","60.03","15"
"03/12/12 12:34:08","29.0384","39.2","213.41","103","60.03","15"
"03/12/12 12:39:08","29.0407","32.3","213.47","232","60.03","15"
"03/12/12 12:44:09","29.0429","20.8","213.25","245","60.03","15"
"03/12/12 12:49:07","29.0446","24.0","213.1","119","60.03","15"
"03/12/12 12:54:09","29.0472","45.3","213.86","312","60.03","15"
"03/12/12 12:59:09","29.0498","18.9","213.77","23","60.03","15"
"03/12/12 13:04:09","29.0518","24.1","213.91","30","60.03","15"
"03/12/12 13:09:09","29.0534","15.3","213.59","205","60.03","15"
"03/12/12 13:14:08","29.0548","23.5","212.83","48","60.0","15"
"03/12/12 13:19:09","29.0571","38.2","213.28","222","60.03","15"
"03/12/12 13:24:09","29.0601","47.9","213.79","218","60.03","15"
"03/12/12 13:29:08","29.0633","45.2","213.86","309","60.03","16"
"03/12/12 13:34:09","29.0668","48.8","213.65","264","60.03","17"
"03/12/12 13:39:09","29.0704","33.7","214.03","100","60.0","18"
"03/12/12 13:44:08","29.0731","26.8","213.75","114","60.0","18"
"03/12/12 13:49:09","29.0756","45.2","214.73","137","60.03","18"
"03/12/12 13:54:09","29.078","35.4","214.68","106","60.03","19"
"03/12/12 13:59:09","29.0811","37.8","214.91","260","60.0","19"
"03/12/12 14:04:08","29.084","25.0","213.89","111","60.03","19"
"03/12/12 14:09:08","29.0863","45.9","214.29","333","60.03","19"
"03/12/12 14:14:08","29.0912","103.3","215.56","488","60.0","20"
"03/12/12 14:19:09","29.1011","122.1","216.05","576","60.03","22"
"03/12/12 14:24:09","29.1078","74.7","214.84","373","60.0","22"
"03/12/12 14:29:09","29.1127","45.7","215.1","360","60.03","22"
"03/12/12 14:34:08","29.1165","46.3","214.1","193","60.03","22"
"03/12/12 14:39:09","29.1194","33.1","213.34","149","60.03","22"
"03/12/12 14:44:08","29.1226","41.6","213.59","234","60.03","20"
"03/12/12 14:49:09","29.1265","65.3","213.93","370","60.03","20"
"03/12/12 14:54:09","29.1305","65.4","215.14","329","60.03","20"
"03/12/12 14:59:09","29.136","74.5","215.84","369","60.07","21"
"03/12/12 15:09:09","29.1498","100.5","216.35","479","60.03","23"
"03/12/12 15:14:08","29.1576","97.0","215.78","467","60.03","24"
"03/12/12 15:19:08","29.1653","100.6","215.96","476","60.0","24"
"03/12/12 15:24:08","29.1742","129.7","216.26","603","60.03","26"
"03/12/12 15:29:08","29.1843","150.2","217.0","687","60.03","27"
"03/12/12 15:34:08","29.1949","144.6","217.44","661","60.03","29"
"03/12/12 15:39:09","29.205","119.2","216.98","558","60.03","29"
"03/12/12 15:44:09","29.2138","107.5","216.54","505","60.0","29"
"03/12/12 15:49:08","29.2224","113.7","215.97","536","60.03","29"
"03/12/12 15:54:08","29.2302","93.4","216.2","446","60.03","28"
"03/12/12 15:59:09","29.2358","23.5","213.84","139","60.03","28"
"03/12/12 16:04:09","29.2404","66.2","215.86","333","60.03","27"
"03/12/12 16:09:08","29.2436","31.9","213.77","20","60.03","26"
"03/12/12 16:14:08","29.2452","16.2","213.32","225","60.03","25"
"03/12/12 16:19:08","29.2462","15.4","213.27","23","60.03","23"
"03/12/12 16:24:08","29.2472","26.9","213.66","241","60.03","22"
"03/12/12 16:29:08","29.2485","6.1","214.31","133","60.03","22"
"03/12/12 16:34:09","29.2499","24.9","214.28","29","60.0","21"
"03/12/12 16:39:09","29.2525","46.1","215.2","309","60.03","21"
"03/12/12 16:44:09","29.2558","24.9","215.05","141","60.0","21"
"03/12/12 16:49:08","29.2577","28.3","214.08","54","60.03","21"
"03/12/12 16:54:09","29.2589","11.2","215.06","27","60.03","20"
"03/12/12 16:59:08","29.2603","23.1","214.07","196","60.03","20"
"03/12/12 17:04:08","29.2626","65.2","214.84","335","60.07","20"
"03/12/12 17:09:09","29.2652","9.6","212.73","129","60.03","21"
"03/12/12 17:14:09","29.2658","0.0","213.44","0","60.0","20"
"03/12/12 17:19:09","29.2661","13.0","212.5","0","60.0","20"
"03/12/12 17:24:10","29.2663","0.0","212.63","0","60.0","19"
"03/12/12 17:29:08","29.2665","13.9","212.53","17","60.07","18"
"03/12/12 17:39:09","29.267","13.2","213.5","43","60.0","18"
"03/12/12 17:44:09","29.2674","14.5","213.14","52","60.03","17"
"03/13/12 08:14:08","29.2676","15.0","212.63","6","60.03","6"
"03/13/12 08:19:09","29.269","28.8","213.47","244","60.03","6"
"03/13/12 08:24:09","29.2708","25.4","214.05","220","60.0","6"
"03/13/12 08:29:09","29.2761","81.1","215.23","399","60.0","7"
"03/13/12 08:34:09","29.2821","83.6","215.48","407","60.0","8"
"03/13/12 08:39:08","29.2891","100.1","214.88","482","60.0","9"
"03/13/12 08:44:09","29.2959","77.7","215.21","385","60.03","9"
"03/13/12 08:49:08","29.3025","97.4","215.2","465","60.03","10"
"03/13/12 08:54:09","29.3088","56.9","214.1","387","60.03","10"
"03/13/12 08:59:08","29.3135","111.1","216.6","525","60.03","10"
"03/13/12 09:04:10","29.3186","39.1","214.72","381","60.0","10"
"03/13/12 09:09:09","29.3253","62.6","215.35","317","60.03","11"
"03/13/12 09:14:09","29.3353","132.5","216.81","618","60.03","11"
"03/13/12 09:19:09","29.3452","125.8","215.56","590","60.03","11"
"03/13/12 09:24:09","29.3552","132.1","215.99","616","60.0","11"
"03/13/12 09:29:10","29.3655","132.7","216.3","617","60.03","11"
"03/13/12 09:34:08","29.376","136.8","216.84","634","60.0","12"
"03/13/12 09:39:10","29.3868","141.4","217.76","654","60.0","12"
"03/13/12 09:44:08","29.3979","144.4","217.04","666","60.03","13"
"03/13/12 09:49:10","29.4094","148.8","217.34","678","60.0","13"
"03/13/12 09:54:08","29.421","152.1","217.61","698","60.03","13"
"03/13/12 09:59:09","29.4331","155.9","217.97","712","60.0","13"
"03/13/12 10:04:08","29.4454","159.2","216.39","731","60.03","13"
"03/13/12 10:09:10","29.458","162.8","217.31","745","60.03","13"
"03/13/12 10:14:09","29.4707","165.4","217.73","749","60.03","13"
"03/13/12 10:19:09","29.4838","169.7","217.54","768","60.0","13"
"03/13/12 10:24:09","29.4971","171.1","217.61","779","60.0","14"
"03/13/12 10:29:10","29.5106","174.7","218.12","793","60.07","14"
"03/13/12 10:34:09","29.5243","177.0","218.01","802","60.0","14"
"03/13/12 10:39:10","29.5384","180.1","217.84","815","60.03","14"
"03/13/12 10:44:09","29.5525","181.1","217.86","815","60.0","15"
"03/13/12 10:49:09","29.5666","184.6","218.3","831","60.0","15"
"03/13/12 10:54:09","29.5811","185.7","218.63","840","60.03","15"
"03/13/12 10:59:10","29.5956","187.4","218.71","844","60.03","15"
"03/13/12 11:04:10","29.6103","189.0","218.31","849","60.03","16"
"03/13/12 11:09:09","29.625","189.9","218.12","858","60.03","17"
"03/13/12 11:14:09","29.6399","192.5","219.01","864","60.03","17"
"03/13/12 11:19:08","29.655","194.4","218.7","870","60.03","16"
"03/13/12 11:24:09","29.6702","195.8","217.71","881","60.03","16"
"03/13/12 11:29:10","29.6856","197.0","217.98","884","60.0","17"
"03/13/12 11:34:08","29.7009","197.2","218.1","886","60.03","17"
"03/13/12 11:39:08","29.7163","197.0","218.55","886","60.03","17"
"03/13/12 11:44:09","29.7317","197.1","218.58","881","60.03","17"
"03/13/12 11:49:10","29.747","196.9","218.13","879","60.03","17"
"03/13/12 11:54:09","29.7623","196.8","218.02","885","60.03","17"
"03/13/12 11:59:09","29.7777","197.0","217.49","888","60.03","17"
"03/13/12 12:04:10","29.7931","196.5","217.56","890","60.0","17"
"03/13/12 12:09:09","29.8083","197.2","217.93","882","60.0","17"
"03/13/12 12:14:10","29.8238","197.0","217.5","886","60.03","17"
"03/13/12 12:19:09","29.839","196.3","216.79","893","60.03","18"
"03/13/12 12:24:08","29.8544","196.9","218.3","888","60.03","18"
"03/13/12 12:29:09","29.8698","196.2","217.26","888","60.0","18"
"03/13/12 12:34:09","29.8851","196.6","217.76","876","60.0","18"
"03/13/12 12:39:09","29.9005","197.3","217.79","888","60.03","18"
"03/13/12 12:44:09","29.9158","197.3","218.79","884","60.0","18"
"03/13/12 12:49:09","29.9311","196.7","218.5","879","60.03","18"
"03/13/12 12:54:10","29.9465","197.0","218.73","884","60.03","18"
"03/13/12 12:59:09","29.9618","197.0","219.12","882","60.07","18"
"03/13/12 13:04:08","29.9771","197.4","218.56","883","60.0","18"
"03/13/12 13:09:09","29.9926","197.3","218.16","885","60.03","18"
"03/13/12 13:14:09","30.0079","197.3","217.71","888","60.07","18"
"03/13/12 13:19:09","30.0232","196.8","218.24","886","60.0","18"
"03/13/12 13:24:08","30.0385","196.5","218.19","887","60.03","18"
"03/13/12 13:29:08","30.0538","196.0","217.52","882","60.03","18"
"03/13/12 13:34:10","30.0692","194.8","217.45","879","60.0","18"
"03/13/12 13:39:09","30.0842","193.6","218.63","868","60.03","18"
"03/13/12 13:44:09","30.0993","192.2","218.09","865","60.03","18"
"03/13/12 13:49:10","30.1141","190.5","217.6","861","60.03","19"
"03/13/12 13:54:09","30.1289","188.0","218.4","845","60.03","19"
"03/13/12 13:59:09","30.1436","188.1","218.01","847","60.03","18"
"03/13/12 14:04:09","30.1582","185.5","218.01","839","60.03","18"
"03/13/12 14:09:09","30.1725","182.9","218.08","827","60.03","19"
"03/13/12 14:14:09","30.1868","181.8","217.75","818","60.0","19"
"03/13/12 14:19:10","30.2009","180.1","219.07","812","60.0","19"
"03/13/12 14:24:10","30.2148","177.2","218.35","799","60.03","18"
"03/13/12 14:29:10","30.2285","174.5","218.17","786","60.0","19"
"03/13/12 14:34:10","30.2421","173.0","218.32","778","60.0","19"
"03/13/12 14:39:09","30.2554","170.1","217.62","766","60.03","19"
"03/13/12 14:44:09","30.2685","168.1","217.83","766","60.0","18"
"03/13/12 14:49:10","30.2815","164.1","217.85","749","60.0","19"
"03/13/12 14:54:09","30.2942","161.8","218.23","736","60.03","19"
"03/13/12 14:59:10","30.3066","159.3","218.52","723","60.07","18"
"03/13/12 15:04:09","30.3189","156.3","217.39","711","60.03","19"
"03/13/12 15:09:09","30.331","153.2","217.19","703","60.03","18"
"03/13/12 15:14:08","30.3428","150.7","216.92","691","60.0","18"
"03/13/12 15:19:09","30.3545","148.0","217.44","678","60.0","18"
"03/13/12 15:24:09","30.3658","144.5","217.03","662","60.0","18"
"03/13/12 15:29:09","30.3769","141.3","217.25","651","60.03","18"
"03/13/12 15:34:09","30.3878","137.4","216.84","636","60.0","18"
"03/13/12 15:39:10","30.3983","133.3","216.72","617","60.03","18"
"03/13/12 15:44:10","30.4086","130.0","216.31","607","60.03","17"
"03/13/12 16:02:49","30.444","114.0","215.78","539","60.03","17"
"03/13/12 16:07:49","30.4528","110.1","215.83","524","60.03","17"
"03/13/12 16:12:48","30.4611","105.6","215.96","499","60.03","17"
"03/13/12 16:17:48","30.4692","101.4","215.97","485","60.03","17"
"03/13/12 16:22:49","30.4769","96.9","215.44","464","60.0","17"
"03/13/12 16:27:49","30.4842","92.4","214.99","449","60.03","17"
"03/13/12 16:32:49","30.4912","87.8","214.92","427","60.03","17"
"03/13/12 16:37:49","30.4978","83.3","215.46","408","60.03","17"
"03/13/12 16:42:49","30.5041","78.4","213.77","387","60.0","17"
"03/13/12 16:47:48","30.51","73.4","213.43","366","60.03","17"
"03/13/12 16:57:50","30.5207","64.0","214.46","323","60.03","17"
"03/13/12 17:02:49","30.5255","55.7","213.77","232","60.07","17"
"03/13/12 17:07:48","30.5298","54.1","213.3","84","60.07","17"
"03/13/12 17:12:49","30.5339","47.0","212.99","190","60.03","17"
"03/13/12 17:17:48","30.5375","44.9","213.29","192","60.0","17"
"03/13/12 17:22:48","30.5409","34.5","213.27","188","60.03","16"
"03/13/12 17:27:50","30.5438","30.7","213.68","79","60.03","15"
"03/13/12 17:32:49","30.5464","27.4","213.6","116","60.0","15"
"03/13/12 17:37:49","30.5486","29.9","213.93","16","60.03","15"
"03/13/12 17:42:49","30.5505","33.4","212.93","276","59.96","15"
"03/13/12 17:47:49","30.5521","18.8","213.22","18","60.0","15"
"03/13/12 17:52:48","30.5535","13.9","213.59","203","60.0","15"
"03/13/12 17:57:50","30.5546","15.4","213.43","2","60.07","14"
"03/13/12 18:02:49","30.5554","6.9","212.97","0","60.07","14"
"03/13/12 18:07:48","30.5561","0.0","213.03","6","60.03","13"
"03/13/12 18:12:50","30.5566","0.0","213.25","0","60.03","13"
"03/14/12 12:26:11","30.5566","181.9","217.4","826","60.03","31"
"03/14/12 12:31:10","30.5702","163.0","215.68","745","60.03","32"
"03/14/12 12:36:10","30.5846","177.0","217.38","799","60.03","32"
"03/14/12 12:41:11","30.5979","172.9","217.88","781","60.03","32"
"03/14/12 12:46:10","30.612","190.6","218.75","859","60.03","33"
"03/14/12 12:51:10","30.6265","128.1","217.52","593","60.03","34"
"03/14/12 12:56:11","30.633","74.8","215.72","371","60.03","32"
"03/14/12 13:01:11","30.6447","148.4","216.79","680","60.0","32"
"03/14/12 13:06:09","30.6585","181.2","217.78","822","60.0","34"
"03/14/12 13:11:10","30.6721","172.5","218.39","782","60.03","34"
"03/14/12 13:16:11","30.6848","152.9","217.98","693","60.0","35"
"03/14/12 13:21:11","30.6969","158.8","217.91","720","60.0","35"
"03/14/12 13:26:11","30.7099","172.1","217.45","779","60.03","36"
"03/14/12 13:31:11","30.7217","164.8","217.77","749","60.03","37"
"03/14/12 13:36:09","30.7309","147.2","216.5","673","60.0","36"
"03/14/12 13:41:10","30.7414","133.8","216.14","624","60.0","36"
"03/14/12 13:46:11","30.7542","171.6","217.4","782","60.03","37"
"03/14/12 13:51:11","30.7672","152.7","218.09","699","60.03","37"
"03/14/12 13:56:10","30.7795","165.6","218.36","752","60.03","37"
"03/14/12 14:01:10","30.7922","160.5","217.78","734","60.0","38"
"03/14/12 14:06:10","30.8047","157.8","218.29","720","60.03","38"
"03/14/12 14:11:11","30.8169","155.2","218.12","706","60.03","38"
"03/14/12 14:16:11","30.8289","151.6","217.34","696","60.0","39"
"03/14/12 14:21:10","30.8406","149.5","217.59","688","60.0","40"
"03/14/12 14:26:11","30.8522","148.4","218.66","678","60.07","40"
"03/14/12 14:31:10","30.8636","146.4","218.26","669","60.07","40"
"03/14/12 14:36:10","30.8751","147.4","218.79","675","60.03","40"
"03/14/12 14:41:11","30.8865","145.3","218.15","666","60.03","40"
"03/14/12 14:46:10","30.8977","142.1","217.43","655","60.0","40"
"03/14/12 14:51:10","30.9087","141.2","217.8","649","60.03","40"
"03/14/12 14:56:11","30.9197","138.8","217.97","641","60.03","39"
"03/14/12 15:01:09","30.9304","136.8","217.89","629","60.03","39"
"03/14/12 15:06:11","30.9409","131.6","218.02","613","60.0","40"
"03/14/12 15:16:10","30.9608","125.7","216.6","586","60.0","39"
"03/14/12 15:21:10","30.9705","124.1","216.91","577","60.0","39"
"03/14/12 15:26:11","30.9802","119.9","215.47","567","60.03","39"
"03/14/12 15:31:11","30.9895","118.3","215.9","556","60.03","39"
"03/14/12 15:36:11","30.9984","106.4","215.85","501","60.0","39"
"03/14/12 15:41:09","31.0065","100.6","215.8","480","60.0","39"
"03/14/12 15:46:09","31.0141","95.3","215.42","461","60.03","39"
"03/14/12 15:51:11","31.0213","88.0","215.4","423","60.0","39"
"03/14/12 15:56:11","31.0283","93.1","215.04","452","60.0","39"
"03/14/12 16:01:11","31.0355","90.1","215.48","437","60.07","39"
"03/14/12 16:06:09","31.0425","91.4","216.42","439","60.03","39"
"03/14/12 16:11:10","31.0492","85.7","215.19","417","60.03","39"
"03/14/12 16:16:11","31.0557","80.6","215.27","395","60.03","40"
"03/14/12 16:21:10","31.0616","74.6","215.01","370","60.0","40"
"03/14/12 16:26:11","31.0674","70.8","215.01","354","60.03","40"
"03/14/12 16:31:11","31.0728","65.7","214.35","332","60.07","40"
"03/14/12 16:36:11","31.0781","69.0","214.28","346","60.0","39"
"03/14/12 16:41:11","31.0833","66.7","214.63","338","60.03","38"
"03/14/12 16:46:11","31.0883","60.4","214.1","310","60.0","35"
"03/14/12 16:51:11","31.0922","55.0","215.23","157","60.03","33"
"03/14/12 16:56:09","31.0962","47.0","214.1","428","60.03","31"
"03/14/12 17:01:10","31.1001","46.6","214.96","353","60.07","30"
"03/14/12 17:06:10","31.1039","53.7","214.42","378","60.03","29"
"03/14/12 17:11:11","31.1073","35.5","213.14","358","60.03","27"
"03/14/12 17:16:09","31.1101","36.7","213.85","247","60.03","26"
"03/14/12 17:21:11","31.1126","32.6","213.34","123","60.03","25"
"03/14/12 17:26:11","31.115","30.1","213.18","24","60.03","25"
"03/14/12 17:31:09","31.1169","19.8","212.95","16","60.0","24"
"03/14/12 17:36:10","31.1185","29.5","213.08","209","60.03","24"
"03/14/12 17:41:10","31.1197","13.1","213.41","23","60.03","24"
"03/14/12 17:46:10","31.1206","7.4","212.79","149","60.03","23"
"03/14/12 17:51:11","31.1211","10.8","212.75","0","60.03","22"
"03/14/12 17:56:11","31.1216","10.5","212.86","20","60.03","21"
"03/14/12 18:01:11","31.122","0.0","212.44","0","60.07","20"
"03/14/12 18:06:11","31.1225","14.8","213.18","250","60.07","20"
"03/14/12 18:11:10","31.1229","12.1","212.6","0","60.03","19"
"03/14/12 18:16:11","31.1233","0.0","212.6","0","60.0","19"
"03/15/12 07:31:10","31.1241","16.3","213.42","57","60.03","7"
"03/15/12 07:36:10","31.1251","11.7","214.03","61","60.03","8"
"03/15/12 07:41:11","31.1265","28.3","214.43","99","60.03","9"
"03/15/12 07:46:11","31.128","32.0","214.68","283","60.0","9"
"03/15/12 07:51:10","31.1298","15.4","213.6","20","60.03","9"
"03/15/12 07:56:11","31.1318","17.6","212.53","53","60.0","9"
"03/15/12 08:01:10","31.134","27.4","213.82","270","60.03","10"
"03/15/12 08:06:10","31.1368","36.9","214.47","97","60.03","10"
"03/15/12 08:11:11","31.1402","54.2","214.59","238","60.03","11"
"03/15/12 08:16:12","31.144","50.3","215.48","398","60.03","11"
"03/15/12 08:21:12","31.148","40.9","215.65","85","60.0","11"
"03/15/12 08:26:10","31.1527","65.1","215.13","330","60.03","12"
"03/15/12 08:31:10","31.1577","67.3","214.49","372","60.03","12"
"03/15/12 08:36:11","31.1613","42.7","215.49","215","60.0","13"
"03/15/12 08:41:10","31.1646","35.6","214.51","269","60.03","13"
"03/15/12 08:46:10","31.1689","65.0","215.28","328","60.03","13"
"03/15/12 08:51:10","31.1743","71.7","215.22","357","60.03","13"
"03/15/12 08:56:10","31.1798","71.3","216.12","355","60.03","13"
"03/15/12 09:01:11","31.1854","71.5","215.76","356","60.0","14"
"03/15/12 09:06:11","31.1912","79.6","215.86","391","60.03","14"
"03/15/12 09:11:10","31.1971","69.2","216.14","348","60.03","14"
"03/15/12 09:16:11","31.2018","56.1","215.57","330","60.0","14"
"03/15/12 09:21:11","31.2059","47.4","216.26","140","60.0","14"
"03/15/12 09:26:12","31.2102","69.9","216.3","347","60.03","14"
"03/15/12 09:31:10","31.2158","71.1","216.52","349","60.0","15"
"03/15/12 09:36:10","31.2215","74.7","216.33","369","60.0","15"
"03/15/12 09:41:11","31.2275","76.5","216.84","374","60.0","15"
"03/15/12 09:46:11","31.2341","86.2","216.84","418","60.0","15"
"03/15/12 09:51:10","31.2408","95.6","216.74","456","60.0","16"
"03/15/12 09:56:11","31.2485","102.2","216.89","483","60.0","17"
"03/15/12 10:01:10","31.2566","106.5","217.6","506","60.0","17"
"03/15/12 10:06:10","31.2642","86.0","217.03","416","60.03","17"
"03/15/12 10:11:11","31.2704","76.4","216.07","379","60.03","17"
"03/15/12 10:16:11","31.2758","65.2","216.25","331","60.03","17"
"03/15/12 10:21:11","31.2818","81.3","216.76","396","60.03","17"
"03/15/12 10:26:11","31.2884","82.3","216.9","397","60.03","17"
"03/15/12 10:31:10","31.2946","75.9","215.16","371","60.0","17"
"03/15/12 10:36:11","31.3001","67.5","214.87","337","60.03","17"
"03/15/12 10:41:12","31.306","84.2","215.09","410","60.03","17"
"03/15/12 10:46:10","31.3123","89.7","215.83","433","60.0","18"
"03/15/12 10:51:10","31.3198","110.1","216.62","520","60.03","18"
"03/15/12 10:56:10","31.329","121.8","215.99","569","60.07","18"
"03/15/12 11:01:11","31.3387","127.1","216.09","591","60.0","19"
"03/15/12 11:06:11","31.3494","137.1","216.48","633","60.0","20"
"03/15/12 11:11:10","31.3602","136.7","216.59","628","60.03","22"
"03/15/12 11:16:11","31.3716","155.0","217.44","708","60.0","23"
"03/15/12 11:21:11","31.3837","152.6","217.55","697","60.0","24"
"03/15/12 11:26:10","31.3954","157.5","218.08","717","60.0","25"
"03/15/12 11:31:11","31.4077","153.8","217.93","706","60.0","26"
"03/15/12 11:36:11","31.4191","138.9","216.45","647","60.03","26"
"03/15/12 11:41:12","31.4297","138.5","217.35","639","60.03","26"
"03/15/12 11:46:10","31.4401","137.9","216.72","640","60.0","26"
"03/15/12 11:51:11","31.4509","134.5","216.68","623","60.0","26"
"03/15/12 11:56:10","31.4613","161.5","217.32","734","60.03","26"
"03/15/12 12:01:10","31.4741","169.1","217.81","770","60.0","28"
"03/15/12 12:06:12","31.487","160.1","216.99","728","60.03","29"
"03/15/12 12:11:11","31.4996","161.3","217.01","738","60.0","29"
"03/15/12 12:16:12","31.5122","162.5","216.8","743","60.03","31"
"03/15/12 12:21:10","31.5242","136.6","216.32","635","60.03","32"
"03/15/12 12:26:10","31.5356","151.9","216.78","698","60.03","32"
"03/15/12 12:31:11","31.5479","156.6","217.84","714","60.0","33"
"03/15/12 12:36:11","31.5603","162.7","217.55","738","60.0","34"
"03/15/12 12:41:12","31.5733","168.4","217.31","767","60.03","35"
"03/15/12 12:46:10","31.5861","164.4","216.83","748","59.96","36"
"03/15/12 12:51:11","31.5989","157.2","216.89","715","60.07","37"
"03/15/12 12:56:11","31.6115","161.6","217.79","732","60.0","38"
"03/15/12 13:01:12","31.6241","153.3","217.86","700","60.03","38"
"03/15/12 13:06:10","31.6362","158.8","217.75","722","60.0","38"
"03/15/12 13:11:11","31.649","148.6","218.02","684","60.03","39"
"03/15/12 13:16:12","31.6609","151.9","217.71","694","60.03","39"
"03/15/12 13:21:11","31.67","94.4","215.42","452","60.0","38"
"03/15/12 13:26:11","31.6781","117.5","215.32","556","60.03","37"
"03/15/12 13:31:11","31.689","153.2","216.81","703","60.0","37"
"03/15/12 13:36:12","31.6996","182.1","217.64","824","60.03","36"
"03/15/12 13:41:12","31.7124","155.8","217.56","711","60.03","36"
"03/15/12 13:46:12","31.7238","153.8","216.86","703","60.0","36"
"03/15/12 13:51:10","31.7367","170.0","217.05","771","60.0","36"